Lid_Strength_Index
13 12 12 12 13 12 13 13 16 13 13 12 11 10 7 7 7 7 7 6 6 5 5 4 4 3 3 4 3 3 2 2 3 3 3 2 2 2 2 1 1 1 2 2
14 12 12 14 12 11 11 11 12 12 13 10 10 7 8 7 7 7 7 6 5 5 5 4 4 4 4 3 4 2 2 3 2 2 2 2 2 2 1 1 1 2 2 3
17 13 13 16 13 12 11 10 11 14 11 8 9 9 8 7 7 7 6 6 5 5 4 4 4 4 4 4 2 3 3 2 2 2 2 2 2 2 2 2 2 2 4 4
16 15 21 13 10 10 11 9 10 11 10 9 9 8 7 6 6 6 6 5 5 4 4 4 4 5 4 2 3 3 3 2 2 2 2 2 2 2 3 3 2 3 4 4
17 18 14 13 11 12 13 13 10 11 9 9 8 7 8 6 6 6 5 4 4 4 4 5 5 4 3 3 3 3 3 3 2 2 2 2 3 3 3 3 3 4 4 5
15 19 21 14 10 9 9 16 9 9 9 9 8 12 10 6 5 6 5 4 4 3 4 5 5 4 3 3 3 3 3 2 2 2 2 2 2 3 3 2 2 2 4 4
16 17 15 11 10 9 17 15 9 8 8 9 10 8 7 5 5 5 5 4 3 4 5 5 4 3 4 4 4 3 2 2 2 2 2 2 3 3 2 3 3 3 4 4
15 17 19 11 11 13 10 8 8 8 7 8 7 7 6 5 5 5 5 4 3 4 5 5 5 3 4 4 4 4 2 2 2 2 2 2 2 3 3 3 3 4 4 4
14 14 10 11 9 7 8 9 9 8 7 6 7 6 6 6 6 5 5 4 4 4 5 5 5 4 4 4 5 3 2 2 2 2 2 2 2 3 4 4 3 3 3 3
12 10 10 9 8 7 7 9 8 7 7 6 7 7 7 6 6 6 5 4 4 4 5 6 6 4 3 4 4 2 3 3 2 3 3 2 3 3 3 3 3 3 3 4
11 9 8 8 8 8 8 7 8 7 7 6 6 6 7 6 7 6 5 4 4 4 5 5 5 5 3 3 2 3 3 3 3 2 3 3 4 4 3 2 3 3 3 2
13 8 8 8 8 7 7 7 7 7 7 6 6 7 7 7 6 6 6 5 4 4 4 5 5 5 2 3 2 3 3 3 3 3 3 4 6 7 12 11 11 9 7 4
9 7 7 7 6 6 7 6 6 6 6 6 6 6 7 8 7 7 6 6 5 4 4 4 5 4 4 3 2 2 3 3 3 3 3 5 6 6 7 9 13 12 11 9
6 6 7 7 7 6 6 5 6 6 6 6 6 6 6 7 7 6 6 6 5 4 3 4 4 5 4 4 2 2 2 7 2 2 3 4 5 6 6 6 5 6 12 11
6 5 6 5 6 6 6 6 7 7 7 6 6 5 5 7 7 6 6 5 4 3 4 4 4 4 4 4 3 2 2 3 2 2 3 4 4 5 5 5 5 6 8 10
6 6 6 6 7 7 7 7 7 7 7 6 6 5 5 5 7 6 5 5 5 5 5 4 4 3 4 4 4 2 2 6 5 3 3 3 3 4 5 5 5 5 4 5
8 8 7 7 7 7 7 7 7 7 6 6 6 5 5 6 6 6 6 4 5 6 7 7 6 5 3 4 4 3 2 4 6 3 3 3 4 3 3 4 5 6 5 6
6 6 6 7 7 7 7 7 7 7 7 6 5 6 6 7 7 5 6 7 8 9 9 7 9 6 7 8 7 5 4 2 4 3 4 3 3 3 4 3 4 5 6 7
6 6 6 6 6 7 6 6 7 7 7 7 7 7 7 7 7 7 7 8 10 11 11 8 11 9 8 10 10 6 5 4 3 3 3 6 5 4 3 3 3 4 5 5
6 6 6 6 6 7 8 6 7 8 8 8 7 8 9 9 8 8 9 10 10 12 11 9 9 9 9 10 11 4 4 4 4 4 4 5 5 4 4 6 3 3 3 4
5 5 6 6 7 7 7 8 7 8 8 8 9 9 9 9 9 9 11 12 11 12 11 9 9 10 9 10 7 5 3 3 4 4 5 6 5 6 4 5 3 3 2 3
4 5 6 6 6 7 8 8 8 8 9 9 9 9 10 10 10 11 10 12 11 14 11 10 10 12 12 12 6 5 5 3 3 3 4 5 5 5 5 5 5 4 3 2
4 4 4 5 5 6 7 7 8 8 9 9 9 10 10 11 11 12 13 12 12 13 11 12 14 16 15 8 7 7 6 6 4 4 3 3 3 4 5 5 5 5 5 5
5 5 5 5 5 6 7 7 7 8 8 9 9 9 10 11 11 10 11 12 14 14 13 14 14 15 14 9 9 9 7 9 8 5 4 8 3 3 3 3 4 5 6 8
4 5 5 6 6 7 7 7 7 8 8 9 9 9 10 10 11 11 11 11 13 13 13 14 14 14 11 10 10 10 9 11 11 9 8 8 7 6 4 3 3 4 5 5
4 5 5 5 6 7 7 8 9 9 9 10 10 10 10 10 10 11 11 12 12 12 12 12 13 13 12 12 11 11 11 11 12 11 12 11 10 10 9 8 7 5 5 5
4 5 5 5 6 6 6 7 8 9 9 9 10 9 10 10 10 11 12 12 12 12 12 12 13 13 13 13 12 12 12 12 13 12 12 12 12 12 12 10 8 8 9 8